Location: Newark
(42.8481°N, 0.4872°E)
Time: 23:45:49
(UTC+00:00)

Vanguard 3 - Pass Details

Date: 03 November 2020
Orbit: 508 x 3262 km, 33.3° (Epoch: 29 November)

Event Time Altitude Azimuth Distance (km) Brightness Sun altitude
Rises 06:03:03 0° 258° (WSW) 6,072 - -6.5°
Exits shadow 06:03:11 - 258° (WSW) 6,044 11.0 -6.4°
Reaches altitude 10° 06:06:38 10° 255° (WSW) 5,347 10.8 -5.8°
Maximum altitude 06:23:42 63° 180° (S) 3,469 10.5 -2.8°
Drops below altitude 10° 06:42:47 10° 106° (ESE) 5,889 13.8 0.5°
Sets 06:46:58 0° 104° (ESE) 6,690 14.4 1.2°
